| time (UTC) | temp F | wind direction | speed MPH | gust MPH | rain 1hr in | rain 24hr in | rain mn in | humidity % | barometer mb |
| 20260905171546 | 72 | 269 | 0.0 | 1.0 | 0.00 | 0.00 | 0.00 | 73 | 1012.4 |
| 20260905170050 | 73 | 269 | 0.0 | 2.0 | 0.00 | 0.00 | 0.00 | 70 | 1012.4 |
| 20260905164542 | 71 | 269 | 0.0 | 3.0 | 0.00 | 0.00 | 0.00 | 75 | 1012.4 |
| 20260905163041 | 71 | 269 | 0.0 | 8.0 | 0.00 | 0.00 | 0.00 | 76 | 1012.5 |
| 20260905161555 | 70 | 264 | 0.0 | 4.0 | 0.00 | 0.00 | 0.00 | 76 | 1012.6 |
| 20260905160037 | 70 | 290 | 0.0 | 7.0 | 0.00 | 0.00 | 0.00 | 77 | 1012.8 |
| 20260905154534 | 69 | 279 | 0.0 | 7.0 | 0.00 | 0.00 | 0.00 | 78 | 1012.9 |
| 20260905153033 | 68 | 284 | 4.0 | 9.0 | 0.00 | 0.00 | 0.00 | 79 | 1013.1 |
| 20260905151533 | 69 | 271 | 0.0 | 8.0 | 0.00 | 0.00 | 0.00 | 80 | 1013.1 |
| 20260905150030 | 68 | 278 | 1.0 | 9.0 | 0.00 | 0.00 | 0.00 | 80 | 1013.2 |
| 20260905144528 | 68 | 262 | 5.0 | 10.0 | 0.00 | 0.00 | 0.00 | 82 | 1013.3 |
| 20260905143027 | 68 | 271 | 2.0 | 6.0 | 0.00 | 0.00 | 0.00 | 83 | 1013.2 |
| 20260905141523 | 66 | 275 | 0.0 | 7.0 | 0.00 | 0.00 | 0.00 | 84 | 1013.4 |
| 20260905140020 | 65 | 284 | 0.0 | 7.0 | 0.00 | 0.00 | 0.00 | 87 | 1013.3 |
| 20260905134518 | 64 | 277 | 0.0 | 4.0 | 0.00 | 0.00 | 0.00 | 89 | 1013.5 |
| 20260905133024 | 63 | 281 | 0.0 | 3.0 | 0.00 | 0.00 | 0.00 | 93 | 1013.6 |
| 20260905131523 | 62 | 281 | 0.0 | 1.0 | 0.00 | 0.00 | 0.00 | 97 | 1013.5 |
| 20260905130013 | 60 | 280 | 0.0 | 2.0 | 0.00 | 0.00 | 0.00 | 98 | 1013.6 |
| 20260905124512 | 60 | 280 | 1.0 | 6.0 | 0.00 | 0.00 | 0.00 | 99 | 1013.8 |
| 20260905123011 | 59 | 280 | 0.0 | 2.0 | 0.00 | 0.00 | 0.00 | 99 | 1013.6 |
| 20260905121512 | 59 | 280 | 0.0 | 0.0 | 0.00 | 0.00 | 0.00 | 99 | 1013.6 |
| 20260905120009 | 58 | 280 | 0.0 | 0.0 | 0.00 | 0.00 | 0.00 | 99 | 1013.5 |
| 20260905114508 | 57 | 280 | 0.0 | 0.0 | 0.00 | 0.00 | 0.00 | 99 | 1013.2 |
| 20260905113005 | 56 | 280 | 0.0 | 0.0 | 0.00 | 0.00 | 0.00 | 98 | 1013.0 |
| 20260905111506 | 57 | 280 | 0.0 | 0.0 | 0.00 | 0.00 | 0.00 | 98 | 1012.6 |
| 20260905110003 | 57 | 280 | 0.0 | 0.0 | 0.00 | 0.00 | 0.00 | 98 | 1012.4 |
| 20260905104501 | 57 | 280 | 0.0 | 0.0 | 0.00 | 0.00 | 0.00 | 98 | 1012.2 |
| 20260905103004 | 57 | 280 | 0.0 | 0.0 | 0.00 | 0.00 | 0.00 | 98 | 1012.3 |
| 20260905101501 | 57 | 280 | 0.0 | 0.0 | 0.00 | 0.00 | 0.00 | 98 | 1012.1 |
| 20260905100123 | 57 | 280 | 0.0 | 1.0 | 0.00 | 0.00 | 0.00 | 98 | 1012.1 |
| 20260905094600 | 57 | 280 | 0.0 | 0.0 | 0.00 | 0.00 | 0.00 | 98 | 1012.2 |
| 20260905093059 | 58 | 280 | 0.0 | 0.0 | 0.00 | 0.00 | 0.00 | 98 | 1012.2 |
| 20260905091612 | 58 | 280 | 0.0 | 0.0 | 0.00 | 0.00 | 0.00 | 98 | 1012.1 |
| 20260905090058 | 58 | 280 | 0.0 | 0.0 | 0.00 | 0.00 | 0.00 | 98 | 1012.1 |
| 20260905084559 | 58 | 280 | 0.0 | 0.0 | 0.00 | 0.00 | 0.00 | 97 | 1012.2 |
| 20260905083108 | 58 | 280 | 0.0 | 0.0 | 0.00 | 0.00 | 0.00 | 97 | 1012.1 |
| 20260905081554 | 59 | 280 | 0.0 | 0.0 | 0.00 | 0.00 | 0.00 | 97 | 1012.1 |
| 20260905080051 | 59 | 280 | 0.0 | 0.0 | 0.00 | 0.00 | 0.00 | 97 | 1012.1 |
| 20260905074549 | 59 | 280 | 0.0 | 0.0 | 0.00 | 0.00 | 0.00 | 96 | 1012.1 |
| 20260905073047 | 60 | 280 | 0.0 | 0.0 | 0.00 | 0.00 | 0.00 | 96 | 1012.2 |
| 20260905071545 | 60 | 280 | 0.0 | 0.0 | 0.00 | 0.00 | 0.00 | 96 | 1012.2 |
| 20260905070045 | 61 | 280 | 0.0 | 0.0 | 0.00 | 0.00 | 0.00 | 96 | 1012.3 |
| 20260905064541 | 62 | 280 | 0.0 | 0.0 | 0.00 | 0.00 | 0.00 | 95 | 1012.4 |
| 20260905063040 | 62 | 280 | 0.0 | 0.0 | 0.00 | 0.00 | 0.00 | 96 | 1012.3 |
| 20260905061542 | 62 | 280 | 0.0 | 0.0 | 0.00 | 0.00 | 0.00 | 95 | 1012.2 |
| 20260905060044 | 62 | 280 | 0.0 | 0.0 | 0.00 | 0.00 | 0.00 | 95 | 1012.4 |
| 20260905054602 | 62 | 280 | 0.0 | 0.0 | 0.00 | 0.00 | 0.00 | 95 | 1012.5 |
| 20260905053035 | 62 | 280 | 0.0 | 0.0 | 0.00 | 0.00 | 0.00 | 95 | 1012.5 |
| 20260905051535 | 62 | 280 | 0.0 | 0.0 | 0.00 | 0.00 | 0.00 | 94 | 1012.5 |
| 20260905050032 | 63 | 280 | 0.0 | 0.0 | 0.00 | 0.00 | 0.00 | 94 | 1012.6 |
| 20260905044533 | 63 | 280 | 0.0 | 0.0 | 0.00 | 0.00 | 0.00 | 93 | 1012.8 |
| 20260905043031 | 63 | 280 | 0.0 | 0.0 | 0.00 | 0.00 | 0.00 | 94 | 1012.8 |
| 20260905041530 | 63 | 280 | 0.0 | 0.0 | 0.00 | 0.00 | 0.00 | 93 | 1012.9 |
| 20260905040027 | 63 | 280 | 0.0 | 0.0 | 0.00 | 0.00 | 0.00 | 92 | 1012.7 |
| 20260905034526 | 64 | 280 | 0.0 | 0.0 | 0.00 | 0.00 | 0.00 | 91 | 1012.7 |
| 20260905033025 | 64 | 280 | 0.0 | 0.0 | 0.00 | 0.00 | 0.00 | 91 | 1012.6 |
| 20260905031526 | 64 | 280 | 0.0 | 0.0 | 0.00 | 0.00 | 0.00 | 90 | 1012.7 |
| 20260905030032 | 65 | 280 | 0.0 | 0.0 | 0.00 | 0.00 | 0.00 | 88 | 1012.6 |
| 20260905024524 | 65 | 280 | 0.0 | 0.0 | 0.00 | 0.00 | 0.00 | 87 | 1012.8 |
| 20260905023024 | 65 | 280 | 0.0 | 2.0 | 0.00 | 0.00 | 0.00 | 87 | 1012.9 |
| 20260905021525 | 65 | 280 | 0.0 | 0.0 | 0.00 | 0.00 | 0.00 | 89 | 1013.0 |
| 20260905020023 | 65 | 280 | 0.0 | 0.0 | 0.00 | 0.00 | 0.00 | 89 | 1013.0 |
| 20260905014523 | 65 | 280 | 0.0 | 0.0 | 0.00 | 0.00 | 0.00 | 87 | 1013.0 |
| 20260905013022 | 66 | 280 | 0.0 | 0.0 | 0.00 | 0.00 | 0.00 | 85 | 1013.0 |
| 20260905011522 | 66 | 280 | 0.0 | 0.0 | 0.00 | 0.00 | 0.00 | 85 | 1013.1 |
| 20260905010021 | 66 | 280 | 0.0 | 0.0 | 0.00 | 0.00 | 0.00 | 84 | 1013.1 |
| 20260905004520 | 67 | 280 | 0.0 | 0.0 | 0.00 | 0.00 | 0.00 | 82 | 1013.1 |
| 20260905003023 | 68 | 280 | 0.0 | 0.0 | 0.00 | 0.00 | 0.00 | 78 | 1012.9 |
| 20260905001520 | 69 | 280 | 0.0 | 0.0 | 0.00 | 0.00 | 0.00 | 77 | 1012.8 |
| 20260905000029 | 69 | 280 | 0.0 | 3.0 | 0.00 | 0.00 | 0.00 | 76 | 1012.7 |
| 20260904234522 | 70 | 277 | 0.0 | 4.0 | 0.00 | 0.00 | 0.00 | 74 | 1012.4 |
| 20260904233020 | 71 | 277 | 0.0 | 3.0 | 0.00 | 0.00 | 0.00 | 72 | 1012.4 |
| 20260904231519 | 71 | 281 | 0.0 | 4.0 | 0.00 | 0.00 | 0.00 | 70 | 1012.2 |
| 20260904230019 | 72 | 264 | 0.0 | 5.0 | 0.00 | 0.00 | 0.00 | 70 | 1012.2 |
| 20260904224517 | 72 | 293 | 0.0 | 1.0 | 0.00 | 0.00 | 0.00 | 70 | 1012.1 |
| 20260904223019 | 73 | 269 | 0.0 | 7.0 | 0.00 | 0.00 | 0.00 | 67 | 1012.1 |
| 20260904221516 | 74 | 282 | 0.0 | 11.0 | 0.00 | 0.00 | 0.00 | 64 | 1012.0 |
| 20260904220016 | 74 | 291 | 2.0 | 13.0 | 0.00 | 0.00 | 0.00 | 61 | 1011.9 |
| 20260904214514 | 75 | 336 | 1.0 | 11.0 | 0.00 | 0.00 | 0.00 | 63 | 1011.7 |
| 20260904213014 | 75 | 266 | 3.0 | 8.0 | 0.00 | 0.00 | 0.00 | 60 | 1012.0 |
| 20260904211515 | 76 | 257 | 3.0 | 13.0 | 0.00 | 0.00 | 0.00 | 60 | 1011.9 |
| 20260904210019 | 76 | 301 | 7.0 | 13.0 | 0.00 | 0.00 | 0.00 | 58 | 1011.8 |
| 20260904204511 | 76 | 275 | 3.0 | 17.0 | 0.00 | 0.00 | 0.00 | 61 | 1012.0 |
| 20260904203013 | 76 | 284 | 4.0 | 13.0 | 0.00 | 0.00 | 0.00 | 60 | 1012.1 |
| 20260904201509 | 76 | 282 | 5.0 | 12.0 | 0.00 | 0.00 | 0.00 | 59 | 1012.4 |
| 20260904200010 | 76 | 273 | 6.0 | 14.0 | 0.00 | 0.00 | 0.00 | 59 | 1012.3 |
| 20260904194509 | 77 | 328 | 4.0 | 16.0 | 0.00 | 0.00 | 0.00 | 58 | 1012.2 |
| 20260904193006 | 78 | 276 | 2.0 | 11.0 | 0.00 | 0.00 | 0.00 | 58 | 1012.2 |
| 20260904191506 | 78 | 288 | 5.0 | 13.0 | 0.00 | 0.00 | 0.00 | 58 | 1012.2 |
| 20260904190005 | 78 | 302 | 5.0 | 17.0 | 0.00 | 0.00 | 0.00 | 62 | 1012.4 |
| 20260904184504 | 78 | 262 | 7.0 | 18.0 | 0.00 | 0.00 | 0.00 | 59 | 1012.3 |
| 20260904183005 | 78 | 288 | 7.0 | 18.0 | 0.00 | 0.00 | 0.00 | 60 | 1012.5 |
| 20260904181503 | 78 | 295 | 5.0 | 14.0 | 0.00 | 0.00 | 0.00 | 61 | 1012.5 |
| 20260904180104 | 77 | 281 | 4.0 | 11.0 | 0.00 | 0.00 | 0.00 | 63 | 1012.7 |
| 20260904174558 | 77 | 141 | 1.0 | 8.0 | 0.00 | 0.00 | 0.00 | 67 | 1012.7 |
| 20260904173106 | 76 | 278 | 2.0 | 7.0 | 0.00 | 0.00 | 0.00 | 65 | 1012.9 |